Location: ???????
(55.7027°N, 37.3832°E)
Time: 21:28:13
(UTC+00:00)

USA 32 - Pass Details

Date: 14 April 2026
Orbit: 775 x 778 km, 85.0° (Epoch: 11 May)

Event Time Altitude Azimuth Distance (km) Brightness Sun altitude
Exits shadow 18:10:46 - 180° (S) 2,906 6.6 -12.7°
Reaches altitude 10° 18:12:14 10° 179° (S) 2,327 6.1 -12.8°
Maximum altitude 18:17:26 77° 95° (E) 806 4.0 -13.4°
Drops below altitude 10° 18:22:42 10° 10° (N) 2,346 7.0 -13.9°
Sets 18:25:04 0° 9° (N) 3,278 7.8 -14.2°
